This is the latest recevied weather packets stored in our database for station/object S51UL-6. If no packets are shown the sender has not sent any weather packets the latest 10 day(s).
| Time | Temp. | Humidity | Pressure | Rain* | Wind** | Luminosity | Snow |
|---|---|---|---|---|---|---|---|
| 1788520548 | 35° C | 39% | 1020 hPa | 21.34 mm | - | - | - |
| 1788520248 | 35° C | 41% | 1020 hPa | 20.83 mm | - | - | - |
| 1788519948 | 33.89° C | 41% | 1020.1 hPa | 21.34 mm | - | - | - |
| 1788519648 | 33.89° C | 41% | 1020.1 hPa | 19.05 mm | - | - | - |
| 1788519048 | 33.33° C | 41% | 1020.2 hPa | 13.46 mm | - | - | - |
| 1788518748 | 32.78° C | 43% | 1020.2 hPa | 12.45 mm | - | - | - |
| 1788518449 | 32.78° C | 44% | 1020.2 hPa | 13.97 mm | - | - | - |
| 1788518150 | 31.67° C | 44% | 1020.3 hPa | 12.95 mm | - | - | - |
| 1788517850 | 31.11° C | 45% | 1020.2 hPa | 12.95 mm | - | - | - |
| 1788517549 | 31.11° C | 45% | 1020.3 hPa | 8.89 mm | - | - | - |
| 1788517249 | 31.11° C | 45% | 1020.6 hPa | 10.92 mm | - | - | - |
| 1788516949 | 30.56° C | 46% | 1020.4 hPa | 10.41 mm | - | - | - |
| 1788516649 | 30.56° C | 46% | 1020.4 hPa | 10.41 mm | - | - | - |
| 1788516049 | 30° C | 46% | 1020.4 hPa | 11.43 mm | - | - | - |
| 1788515450 | 30° C | 47% | 1020.6 hPa | 12.45 mm | - | - | - |
| 1788514849 | 29.44° C | 48% | 1020.6 hPa | 9.91 mm | - | - | - |
| 1788514549 | 29.44° C | 48% | 1020.8 hPa | 8.89 mm | - | - | - |
| 1788514249 | 29.44° C | 49% | 1020.6 hPa | 8.89 mm | - | - | - |
| 1788513949 | 29.44° C | 49% | 1020.7 hPa | 6.6 mm | - | - | - |
| 1788513649 | 29.44° C | 50% | 1020.7 hPa | 5.59 mm | - | - | - |
| 1788513350 | 28.89° C | 50% | 1020.9 hPa | 5.08 mm | - | - | - |
| 1788513050 | 28.89° C | 51% | 1020.9 hPa | 3.05 mm | - | - | - |
| 1788512450 | 28.89° C | 49% | 1020.9 hPa | 2.03 mm | - | - | - |
| 1788511850 | 28.89° C | 52% | 1021.1 hPa | 1.02 mm | - | - | - |
| 1788511551 | 28.89° C | 53% | 1021.2 hPa | 1.02 mm | - | - | - |
* Rain latest hour (hover to see other rain measurements)
** Current wind speed in m/s (hover to see current wind gust speed)